STARLINK-1996 (47591 NORAD) Tracking and Keplerian Element Data

This shows tracking and keplerian element data for the satellite.

Feedback or suggestion? Click here.




ElementValue
Catalog47591
NameSTARLINK-1996
Epoch Orbit177
Epoch Day101.91668981
Epoch Year2021
RAAN157.5564
Inclination53.0522
Eccentricity0.0004046
Argument of Perigee11.0148
Mean Anonmoly229.6068
Mean Motion15.62762113
Decay Rate0.00034958
L11 47591U 21009AV 21101.91668981 .00034958 00000-0 38575-3 0 9991
L22 47591 53.0522 157.5564 0004046 11.0148 229.6068 15.62762113 1779

Live tracking and technical data element details for STARLINK-1996 (NORAD 47591). STARLINK-1996 can be tracked NOW for your location showing map with azimuth and elevation plus other details from your city location.

Track the satellite on the map from your city or location and see movement details for azimuth, elevation, latitude, longitude, range, height, and movement on the map or in text.







IsCatalogInMostPopularTable: catalog: 47591, numindb: 18
Update: records affected: 1



GetName: 47591 STARLINK-1996

Hit Count: updated at: Tue, 13 Apr 2021 03:52:04 GMT